Regional Weather Roundup
Issued by NWS Nashville, TN

Current Version | Previous Version | Text Only | Print | Product List | Glossary Off
Versions: 1 2 3 4 5 6 7 8 9 10 11 12 13 14 15 16 17 18 19 20 21 22 23 24 25 26 27 28 29 30 31 32 33 34 35 36 37 38 39 40 41 42 43 44 45 46 47 48 49 50

699
ASUS44 KOHX 252010
RWROHX
MIDDLE TENNESSEE HOURLY WEATHER ROUNDUP
NATIONAL WEATHER SERVICE NASHVILLE TN
300 PM CDT SUN AUG 25 2019

NOTE: "FAIR" INDICATES FEW OR NO CLOUDS BELOW 12,000 FEET WITH
NO SIGNIFICANT WEATHER AND/OR OBSTRUCTIONS TO VISIBILITY.

* THESE REPORTS ARE NOT UNDER NWS QUALITY CONTROL AND MAY NOT
  REPORT WEATHER SUCH AS PRECIPITATION AND FOG.


TNZ005>011-023>034-057-059-062>066-078-080-252100
...NORTHERN MIDDLE TENNESSEE...

CITY           SKY/WX    TMP DP  RH WIND       PRES   REMARKS
CLARKSVILLE    HVY RAIN  78  74  87 E10       29.94S FOG
CROSSVILLE     CLOUDY    72  65  78 VRB5      30.07F
DICKSON        MOSUNNY   75  73  94 S5        29.95S FOG
GALLATIN       CLOUDY    79  72  78 S8        29.99F
LEBANON        CLOUDY    81  72  74 S8        29.95F
LIVINGSTON     PTSUNNY   79  68  69 S8        30.01F
NASHVILLE      CLOUDY    79  70  74 S10       29.98F
PORTLAND       PTSUNNY   77  73  88 SE6       29.96F
ROCKWOOD       CLOUDY    72  68  88 CALM      30.06F
SPARTA         CLOUDY    79  70  73 SE7       30.00F
WEST NASHVILLE CLOUDY    79  72  78 S10       29.95S
$$
TNZ056-058-060-061-075>077-079-093>097-252100
...SOUTHERN MIDDLE TENNESSEE...

CITY           SKY/WX    TMP DP  RH WIND       PRES   REMARKS
COLUMBIA       CLOUDY    79  77  94 VRB5      29.94F
FAYETTEVILLE   CLOUDY    77  70  78 SE12      29.98F
LAWRENCEBURG   CLOUDY    75  72  88 SE8       29.97F
LEWISBURG      CLOUDY    79  72  78 S6        29.96F
MCMINNVILLE    CLOUDY    77  70  78 SE5       30.00F
MURFREESBORO   CLOUDY    79  70  73 S5        29.96F
SHELBYVILLE    CLOUDY    79  70  73 S7        29.98S
TULLAHOMA      CLOUDY    77  70  78 SE8       29.99F
WINCHESTER     CLOUDY    77  68  73 S12       30.00F
$$


...KEY TO REMARKS...
VSB - VISIBILITY IN MILES
WCI - WIND CHILL INDEX
HX  - HEAT INDEX





USA.gov is the U.S. government's official web portal to all federal, state and local government web resources and services.